Regional Weather Roundup
Issued by NWS Newport/Morehead, NC

Current Version | Previous Version | Graphics & Text | Print | Product List | Glossary Off
Versions: 1 2 3 4 5 6 7 8 9 10 11 12 13 14 15 16 17 18 19 20 21 22 23 24 25 26 27 28 29 30 31 32 33 34 35 36 37 38 39 40 41 42 43 44 45 46 47 48 49 50

000
ASUS42 KMHX 221812
RWRMHX
WEATHER ROUNDUP FOR EASTERN NORTH CAROLINA
NATIONAL WEATHER SERVICE NEWPORT/MOREHEAD CITY NC
200 PM EDT FRI MAY 22 2015

NOTE: "FAIR" INDICATES FEW OR NO CLOUDS BELOW 12,000 FEET
WITH NO SIGNIFICANT WEATHER AND/OR OBSTRUCTIONS TO VISIBILITY

NCZ015>017-031-032-045>047-102-103-221900-
NORTH COAST

CITY           SKY/WX    TMP DP  RH WIND       PRES   REMARKS
EDENTON        SUNNY     70  48  45 W5        30.17S
ELIZABETH CITY SUNNY     70  46  42 NE5       30.16R
KITTY HAWK     CLEAR     66  45  46 N6        30.16R
MANTEO         SUNNY     66  49  54 NE10      30.17R

$$

NCZ045>047-081-094-103-104-221900-
CENTRAL COAST

CITY           SKY/WX    TMP DP  RH WIND       PRES   REMARKS
FRISCO         SUNNY     66  46  48 NE9G16    30.17S
SWANQUARTER      N/A     70 N/A N/A NW7       30.12S

$$

NCZ095-097-098-100-101-221900-
SOUTHERN COAST

CITY           SKY/WX    TMP DP  RH WIND       PRES   REMARKS
BEAUFORT       MOSUNNY   70  53  54 NE8       30.17R
CEDAR ISLAND     N/A     68 N/A N/A N6        30.21S
JACKSONVILLE   SUNNY     71  51  49 CALM      30.17S
PINEY ISLAND   CLEAR    N/A N/A N/A NE8       30.17S
WILMINGTON     PTSUNNY   72  55  55 N8        30.17S


$$

NCZ011>013-027>030-043-044-078>080-089-090>093-098-221900-
COASTAL PLAIN

CITY           SKY/WX    TMP DP  RH WIND       PRES   REMARKS
AHOSKIE        SUNNY     67  42  40 CALM      30.17S
CLINTON        MOSUNNY   72  51  47 W3        30.19S
ELIZABETHTOWN  PTSUNNY   71  50  48 CALM      30.18S
GOLDSBORO      MOSUNNY   70  46  42 NW1       30.17R
GREENVILLE     SUNNY     70  45  40 CALM      30.19S
HAVELOCK       MOSUNNY   71  51  49 CALM      30.18S
KENANSVILLE    SUNNY     70  47  43 NW6       30.19S
KINSTON        SUNNY     70  45  40 N8        30.19S
NEW BERN       MOSUNNY   72  51  47 NW6       30.18S
RICHLANDS      MOSUNNY   70  48  46 W3        30.18S
ROCKY MOUNT    SUNNY     71  43  36 VRB6      30.18S
WASHINGTON     SUNNY    N/A N/A N/A NW3       30.18S
WHITEVILLE     SUNNY     72  53  50 N6        30.18S

$$

AMZ130-135-150-152-154-156-158-170-250-252-270-ANZ085-086-088-633-658-670-221900-
MARINE OBSERVATIONS

STATION/POSITION TIME  TEMP    WIND        PRES    WAVE   SWELL
                       AIR SEA DIR/SP/G            HT/PER HT/PER
                 (UTC) (F)     (DEG/KT/KT) (MB)    (FT/S) (FT/S)
CHESAPEAKE LIGHT 1700   63     290/ 10/ 11 1021.4
64 E VA BEACH    1750   60 61  300/ 10/ 14 1020.2    5/ 7   5/ 7
DUCK             1700   62 67   10/  9/ 11 1020.3
2 E DUCK         1711      65                N/A     3/ 8
OREGON INLET     1700   63 68  360/ 10/ 16 1021.4
13E OREGON INLT  1800      62                N/A     5/ 8
HATTERAS CG      1700   64 71   10/ 10/ 13 1020.9
DIAMOND BUOY     1750   62 77   10/ 12/ 16 1021.3    4/ 8   3/ 8
CAPE LOOKOUT     1800   67      50/ 10/ 12 1021.4
BEAUFORT LAB     1700   67 73  360/  9/ 10 1020.7
27 SE WRIGHTSVLE 1700   63 77   30/ 10/ 12   N/A
5 SE WRIGHTSVLE  1708   66 76   70/  8/ 14 1021.8
225 S CAPE HAT   1750   73 75   50/ 17/ 19 1018.9    4/ 7   2/ 9
41 SE CHARLESTON 1750   69 76   30/ 19/ 23 1020.2    6/ 6   2/12

$$


USA.gov is the U.S. government's official web portal to all federal, state and local government web resources and services.